Notices

What's New in latest Release from April 7th, 2021:

- Updated Glossary, including Speed of Maximum Gust, and Total Hourly Precipitation

- Updated national and regional climate services offices contacts and prices information

- Addition of station inventory lists for 1981-2010, 1971-2000, and 1961-1990 Normals.

If you haven't already, please take our survey and provide feedback about our website: https://eccc.sondage-survey.ca/f/LanguageSelection.aspx?s=442ca660-fcf1-47c0-95a9-59707d6fd709

Hourly Data Report for September 05, 2003

TORONTO CITY
ONTARIO

43°40'00.000" N
79°24'00.000" W
112.50 m
6158355
71508
XTO

Download Data

Hourly Data (September 2003)
Hourly Data Report for September 5, 2003
TIME
LST
Temp Definition
°C
Dew Point Definition
°C
Rel Hum Definition
%
Precip. Amount Definition
mm

Wind Dir Definition
10's deg

Wind Spd Definition
km/h
Visibility Definition
km
Stn Press Definition
kPa
Hmdx Definition


Wind Chill Definition


Weather Definition


00:00 15.4 12.2 81   LegendMM LegendMM LegendMM 100.11     LegendNANA
01:00 15.1 12.0 82   LegendMM LegendMM LegendMM 100.11     LegendNANA
02:00 14.6 11.6 82   LegendMM LegendMM LegendMM 100.14     LegendNANA
03:00 14.6 10.5 76   LegendMM LegendMM LegendMM 100.18     LegendNANA
04:00 14.3 10.3 77   LegendMM LegendMM LegendMM 100.24     LegendNANA
05:00 14.4 9.9 74   LegendMM LegendMM LegendMM 100.29     LegendNANA
06:00 14.4 10.0 75   LegendMM LegendMM LegendMM 100.37     LegendNANA
07:00 14.6 10.0 74   LegendMM LegendMM LegendMM 100.47     LegendNANA
08:00 15.3 10.5 73   LegendMM LegendMM LegendMM 100.49     LegendNANA
09:00 16.6 10.5 67   LegendMM LegendMM LegendMM 100.53     LegendNANA
10:00 18.6 9.9 57   LegendMM LegendMM LegendMM 100.53     LegendNANA
11:00 20.3 9.2 49   LegendMM LegendMM LegendMM 100.51     LegendNANA
12:00 20.9 8.2 44   LegendMM LegendMM LegendMM 100.48     LegendNANA
13:00 22.2 9.3 44   LegendMM LegendMM LegendMM 100.45     LegendNANA
14:00 23.5 9.6 41   LegendMM LegendMM LegendMM 100.42 25   LegendNANA
15:00 22.8 8.3 39   LegendMM LegendMM LegendMM 100.40     LegendNANA
16:00 22.1 6.9 37   LegendMM LegendMM LegendMM 100.40     LegendNANA
17:00 21.8 6.5 37   LegendMM LegendMM LegendMM 100.41     LegendNANA
18:00 21.0 6.1 38   LegendMM LegendMM LegendMM 100.45     LegendNANA
19:00 19.6 6.2 42   LegendMM LegendMM LegendMM 100.48     LegendNANA
20:00 18.4 6.5 46   LegendMM LegendMM LegendMM 100.53     LegendNANA
21:00 17.5 4.3 42   LegendMM LegendMM LegendMM 100.55     LegendNANA
22:00 16.9 4.3 43   LegendMM LegendMM LegendMM 100.58     LegendNANA
23:00 15.8 5.1 49   LegendMM LegendMM LegendMM 100.58     LegendNANA

Notes on Data Quality.

Legend

  • E = Estimated
  • M = Missing
  • NA = Not Available*
  • [empty] = Indicates an unobserved value
Date modified: